Zurück zum Katalog

STARLINK-6205

AktivKommunikationVLEO
NORAD 56898·PAYLOAD·🇺🇸 United States

Gestartet Jun 12, 2023 von Cape Canaveral Space Force Station

Loading…

Nächste Überflüge (nächste 24 Stunden)

TLE

AktuellSource: CelesTrak SupGP

Epoche: Sep 15, 2026, 02:19 UTC

1 56898C 23083Y   26258.09701389  .00020787  00000+0  75307-3 0  2588
2 56898  43.0002  92.3629 0001744 266.5318 135.5120 15.27559885    18

Verfolge STARLINK-6205 in Echtzeit mit AllMySat

Download on the App Store